User: anonymous   Login
Location: Unspecified
(0.0000°N, 0.0000°E)
Time: 19:31:27
(UTC+00:00)
Language:

RISAT 1 - Orbit

View from above orbital plane
View from above orbital plane
View from above satellite
View from above satellite

Ground track
Ground track

The orbit data is extracted from the following two-line orbital elements,

1 38248U 12017A   14330.94142875 -.00028962  00000-0 -18431-2 0  9197
2 38248 097.5617 335.7831 0004482 049.5173 037.7012 15.08866936142503
Epoch (UTC): 26 November 2014 22:35:39
Eccentricity: 0.0004482
inclination: 97.5617°
perigee height: 536 km
apogee height: 543 km
right ascension of ascending node: 335.7831°
argument of perigee: 49.5173°
revolutions per day: 15.08866936
mean anomaly at epoch: 37.7012°
orbit number at epoch: 14250

The dashed part of the orbit path shows where the satellite is in the earth's shadow,  

DLR